This is the latest recevied weather packets stored in our database for station/object 9M2MIN-1. If no packets are shown the sender has not sent any weather packets the latest 10 day(s).
| Time | Temp. | Humidity | Pressure | Rain* | Wind** | Luminosity | Snow |
|---|---|---|---|---|---|---|---|
| 1777549590 | 32.78° C | 73% | 1007.5 hPa | - | - | - | - |
| 1777548690 | 32.78° C | 72% | 1007.1 hPa | - | - | - | - |
| 1777547789 | 32.78° C | 71% | 1007.1 hPa | - | - | - | - |
| 1777546889 | 33.33° C | 70% | 1007 hPa | - | - | - | - |
| 1777545989 | 33.33° C | 70% | 1006.8 hPa | - | - | - | - |
| 1777545089 | 33.33° C | 69% | 1006.5 hPa | - | - | - | - |
| 1777544188 | 33.33° C | 66% | 1006.4 hPa | - | - | - | - |
| 1777543288 | 33.33° C | 65% | 1006.1 hPa | - | - | - | - |
| 1777542391 | 33.33° C | 61% | 1005.9 hPa | - | - | - | - |
| 1777541491 | 33.33° C | 62% | 1005.8 hPa | - | - | - | - |
| 1777540591 | 33.33° C | 62% | 1006 hPa | - | - | - | - |
| 1777539691 | 33.33° C | 62% | 1006.1 hPa | - | - | - | - |
| 1777538791 | 33.89° C | 58% | 1006 hPa | - | - | - | - |
| 1777537891 | 34.44° C | 59% | 1006.3 hPa | - | - | - | - |
| 1777536991 | 33.89° C | 60% | 1006.3 hPa | - | - | - | - |
| 1777536091 | 34.44° C | 60% | 1006.4 hPa | - | - | - | - |
| 1777535190 | 34.44° C | 62% | 1006.4 hPa | - | - | - | - |
| 1777534290 | 34.44° C | 61% | 1006.5 hPa | - | - | - | - |
| 1777533389 | 34.44° C | 58% | 1006.9 hPa | - | - | - | - |
| 1777532489 | 34.44° C | 59% | 1007.1 hPa | - | - | - | - |
| 1777531589 | 34.44° C | 59% | 1007.3 hPa | - | - | - | - |
| 1777530689 | 33.89° C | 59% | 1007.5 hPa | - | - | - | - |
| 1777529789 | 34.44° C | 59% | 1007.8 hPa | - | - | - | - |
| 1777528889 | 34.44° C | 59% | 1007.9 hPa | - | - | - | - |
| 1777527989 | 33.89° C | 61% | 1008 hPa | - | - | - | - |
* Rain since midnight (hover to see other rain measurements)
** Current wind speed in m/s (hover to see current wind gust speed)